FW9116 Weather Reports


Display with metric or nautical units.
time (UTC)temp
F
wind
direction
speed
MPH
gust
MPH
rain 1hr
in
rain 24hr
in
rain mn
in
humidity
%
barometer
mb
20240304074057 36 183 1.0 12.0 0.00 0.06 0.06 94 1011.0
20240304073556 36 196 3.0 13.0 0.00 0.06 0.06 94 1010.9
20240304073056 36 278 3.0 13.0 0.00 0.06 0.06 94 1010.7
20240304072555 36 217 3.0 11.0 0.00 0.06 0.06 94 1010.7
20240304072056 36 0 2.0 12.0 0.00 0.06 0.06 94 1010.7
20240304071557 36 0 3.0 12.0 0.00 0.06 0.06 94 1010.6
20240304071055 36 153 3.0 10.0 0.00 0.06 0.06 94 1010.6
20240304070558 36 215 0.0 9.0 0.00 0.06 0.06 94 1010.6
20240304070114 36 145 3.0 10.0 0.00 0.06 0.06 94 1010.8
20240304065559 36 257 2.0 10.0 0.00 0.06 0.06 94 1010.7
20240304065055 36 229 2.0 9.0 0.00 0.06 0.06 94 1010.7
20240304064557 36 211 0.0 8.0 0.00 0.06 0.06 94 1010.7
20240304064055 36 0 2.0 9.0 0.00 0.06 0.06 94 1010.6
20240304063555 36 207 2.0 9.0 0.00 0.06 0.06 94 1010.6
20240304063058 36 215 3.0 9.0 0.00 0.06 0.06 94 1010.6
20240304062556 36 208 1.0 9.0 0.00 0.06 0.06 94 1010.6
20240304062056 36 0 2.0 9.0 0.00 0.06 0.06 93 1010.5
20240304061609 36 219 1.0 9.0 0.00 0.06 0.06 93 1010.5
20240304061056 36 242 4.0 14.0 0.00 0.06 0.06 93 1010.5
20240304060556 36 0 3.0 14.0 0.00 0.06 0.06 93 1010.5
20240304060108 36 0 3.0 9.0 0.00 0.06 0.06 93 1010.5
20240304055558 36 205 2.0 8.0 0.00 0.06 0.06 93 1010.5
20240304055055 36 0 1.0 6.0 0.00 0.06 0.06 93 1010.5
20240304054605 36 0 0.0 7.0 0.00 0.06 0.06 93 1010.6
20240304054055 36 0 1.0 7.0 0.00 0.06 0.06 93 1010.7
20240304053555 36 0 1.0 7.0 0.00 0.06 0.06 93 1010.6
20240304053105 36 227 0.0 7.0 0.00 0.06 0.06 93 1010.5
20240304052555 36 227 0.0 3.0 0.00 0.06 0.06 93 1010.3
20240304052055 37 0 0.0 7.0 0.00 0.06 0.06 93 1010.2
20240304051605 37 0 1.0 11.0 0.00 0.06 0.06 93 1010.2
20240304051055 37 0 1.0 12.0 0.00 0.06 0.06 93 1010.1
20240304050555 37 205 4.0 12.0 0.00 0.06 0.06 93 1010.0
20240304050108 37 177 2.0 8.0 0.00 0.06 0.06 93 1009.9
20240304045556 37 223 2.0 7.0 0.00 0.06 0.06 93 1010.0
20240304045055 37 208 1.0 7.0 0.00 0.06 0.06 93 1009.9
20240304044559 37 0 1.0 6.0 0.00 0.06 0.06 93 1009.9
20240304044056 37 165 1.0 6.0 0.00 0.06 0.06 93 1010.0
20240304043556 37 0 0.0 6.0 0.00 0.06 0.06 93 1010.1
20240304043102 37 0 0.0 7.0 0.00 0.06 0.06 93 1010.0
20240304042555 37 188 2.0 7.0 0.00 0.06 0.06 93 1009.9
20240304042059 37 0 0.0 5.0 0.00 0.06 0.06 93 1009.8
20240304041557 37 209 0.0 8.0 0.00 0.06 0.06 94 1009.7
20240304041057 37 0 2.0 10.0 0.00 0.06 0.06 93 1009.7
20240304040555 36 224 4.0 10.0 0.00 0.06 0.06 94 1009.6
20240304040058 36 250 2.0 8.0 0.00 0.06 0.06 94 1009.6
20240304035555 36 209 0.0 7.0 0.00 0.06 0.06 94 1009.6
20240304035055 36 232 0.0 8.0 0.00 0.06 0.06 94 1009.6
20240304034559 36 0 1.0 8.0 0.00 0.06 0.06 93 1009.6
20240304034055 36 307 1.0 8.0 0.00 0.06 0.06 93 1009.5
20240304033555 36 194 2.0 8.0 0.00 0.06 0.06 93 1009.5
20240304033105 36 0 1.0 7.0 0.00 0.06 0.06 93 1009.4
20240304032555 36 0 0.0 8.0 0.00 0.06 0.06 93 1009.4
20240304032055 36 223 1.0 8.0 0.01 0.06 0.06 93 1009.3
20240304031605 36 217 1.0 5.0 0.02 0.06 0.06 93 1009.2
20240304031055 36 179 2.0 5.0 0.02 0.06 0.06 93 1009.2
20240304030554 36 0 0.0 6.0 0.02 0.06 0.06 93 1009.2
20240304030053 36 0 0.0 6.0 0.02 0.06 0.06 93 1009.3
20240304025555 36 0 1.0 6.0 0.02 0.06 0.06 93 1009.2
20240304025055 36 193 0.0 5.0 0.02 0.06 0.06 93 1009.2
20240304024601 36 0 0.0 5.0 0.02 0.06 0.06 93 1009.2
20240304024054 36 0 2.0 7.0 0.02 0.06 0.06 93 1009.2
20240304023556 36 0 2.0 7.0 0.02 0.06 0.06 92 1009.1
20240304023057 36 231 2.0 6.0 0.02 0.06 0.06 92 1009.1
20240304022555 36 0 1.0 11.0 0.02 0.06 0.06 91 1009.0
20240304022054 37 0 5.0 11.0 0.01 0.05 0.05 91 1008.9
20240304021600 37 257 0.0 8.0 0.00 0.04 0.04 91 1009.1
20240304021055 37 208 1.0 8.0 0.00 0.04 0.04 91 1008.9
20240304020553 37 221 2.0 8.0 0.00 0.04 0.04 91 1008.9
20240304020105 37 214 0.0 8.0 0.00 0.04 0.04 91 1008.7
20240304015554 37 0 0.0 6.0 0.00 0.04 0.04 91 1008.6
20240304015053 37 293 1.0 6.0 0.00 0.04 0.04 91 1008.6
20240304014558 37 191 1.0 7.0 0.00 0.04 0.04 91 1008.6
20240304014054 37 0 1.0 7.0 0.00 0.04 0.04 90 1008.7
20240304013600 37 221 0.0 5.0 0.00 0.04 0.04 91 1008.7
20240304013057 37 0 0.0 5.0 0.00 0.04 0.04 91 1008.6
20240304012553 37 0 0.0 10.0 0.00 0.04 0.04 91 1008.5
20240304012053 37 0 2.0 10.0 0.00 0.04 0.04 90 1008.4
20240304011608 37 169 1.0 4.0 0.00 0.04 0.04 91 1008.3
20240304011053 37 211 0.0 4.0 0.00 0.04 0.04 91 1008.4
20240304010553 37 205 0.0 7.0 0.00 0.04 0.04 90 1008.3
20240304010059 37 0 0.0 7.0 0.00 0.04 0.04 90 1008.1
20240304005553 37 0 2.0 6.0 0.00 0.04 0.04 90 1008.1
20240304005053 38 232 0.0 4.0 0.00 0.04 0.04 91 1007.9
20240304004600 38 205 0.0 7.0 0.00 0.04 0.04 91 1007.8
20240304004053 38 182 0.0 7.0 0.00 0.04 0.04 91 1007.7
20240304003553 37 182 1.0 6.0 0.00 0.04 0.04 91 1007.7
20240304003057 38 0 1.0 6.0 0.00 0.04 0.04 90 1007.7
20240304002553 38 0 0.0 6.0 0.00 0.04 0.04 90 1007.9
20240304002057 38 0 0.0 9.0 0.00 0.04 0.04 90 1007.9
20240304001558 38 0 3.0 9.0 0.00 0.04 0.04 90 1007.8
20240304001053 38 0 1.0 7.0 0.00 0.04 0.04 90 1007.8
20240304000557 38 210 0.0 7.0 0.00 0.04 0.04 91 1007.6
20240304000059 38 217 2.0 7.0 0.01 0.04 0.04 90 1007.6
20240303235557 38 0 3.0 7.0 0.01 0.04 0.04 90 1007.5
20240303235053 38 0 0.0 6.0 0.01 0.04 0.04 90 1007.5
20240303234600 38 0 0.0 10.0 0.01 0.04 0.04 91 1007.4
20240303234057 38 192 3.0 13.0 0.01 0.04 0.04 91 1007.1
20240303233557 38 200 2.0 13.0 0.01 0.04 0.04 91 1007.3
20240303233101 38 0 5.0 13.0 0.01 0.04 0.04 91 1007.3
20240303232557 38 0 1.0 10.0 0.01 0.04 0.04 91 1007.3
20240303232101 38 0 2.0 10.0 0.01 0.04 0.04 91 1007.3
20240303231603 38 0 2.0 10.0 0.01 0.04 0.04 91 1007.2
20240303231057 39 232 2.0 10.0 0.01 0.04 0.04 92 1007.1
20240303230557 39 0 2.0 8.0 0.01 0.04 0.04 92 1007.1
20240303230106 39 211 1.0 10.0 0.00 0.03 0.03 92 1007.0
20240303225556 39 257 2.0 17.0 0.00 0.03 0.03 91 1007.0
20240303225057 39 300 2.0 17.0 0.00 0.03 0.03 91 1007.0
20240303224607 39 220 5.0 12.0 0.00 0.03 0.03 91 1007.0
20240303224100 40 277 3.0 14.0 0.00 0.03 0.03 91 1007.0
20240303223557 40 236 4.0 14.0 0.00 0.03 0.03 91 1007.1
20240303223057 40 0 2.0 14.0 0.00 0.03 0.03 91 1007.1
20240303222556 39 203 2.0 10.0 0.00 0.03 0.03 91 1007.1
20240303222057 39 296 3.0 10.0 0.00 0.03 0.03 91 1007.0
20240303221556 40 199 2.0 10.0 0.00 0.03 0.03 90 1007.1
20240303221059 40 276 3.0 13.0 0.00 0.03 0.03 89 1007.1
20240303220557 40 217 3.0 13.0 0.00 0.03 0.03 88 1007.1
20240303220057 41 190 3.0 12.0 0.01 0.03 0.03 89 1007.2
20240303215557 41 0 1.0 8.0 0.01 0.03 0.03 89 1007.0
20240303215101 41 245 1.0 11.0 0.01 0.03 0.03 89 1007.1
20240303214605 40 164 2.0 18.0 0.01 0.03 0.03 89 1007.1
20240303214100 40 0 2.0 18.0 0.01 0.03 0.03 90 1007.1
20240303213554 40 286 1.0 17.0 0.01 0.03 0.03 90 1006.9
20240303213055 40 205 5.0 17.0 0.01 0.03 0.03 90 1006.9
20240303212556 40 213 5.0 15.0 0.01 0.03 0.03 90 1006.9
20240303212057 40 300 5.0 15.0 0.01 0.03 0.03 91 1006.8
20240303211558 40 232 3.0 10.0 0.02 0.03 0.03 92 1006.9
20240303211058 39 213 1.0 9.0 0.02 0.03 0.03 92 1007.0
20240303210608 39 209 1.0 9.0 0.02 0.03 0.03 92 1007.0
20240303210108 39 0 1.0 9.0 0.01 0.02 0.02 92 1006.9
20240303205559 39 0 2.0 11.0 0.01 0.04 0.02 91 1007.0
20240303205100 39 190 0.0 12.0 0.01 0.04 0.02 91 1006.9
20240303204606 39 225 3.0 14.0 0.01 0.04 0.02 91 1007.0
20240303204056 39 231 5.0 14.0 0.01 0.04 0.02 91 1007.0
20240303203557 39 221 2.0 14.0 0.01 0.04 0.02 91 1006.9
20240303203102 39 217 3.0 12.0 0.01 0.04 0.02 91 1007.0
20240303202557 39 0 2.0 13.0 0.01 0.04 0.02 91 1007.1
20240303202057 39 216 2.0 13.0 0.01 0.04 0.02 91 1007.0
20240303201606 39 188 2.0 11.0 0.00 0.03 0.01 90 1007.1
20240303201057 39 201 1.0 9.0 0.00 0.03 0.01 90 1007.1
20240303200557 39 0 1.0 8.0 0.00 0.03 0.01 90 1007.1
20240303200106 39 0 1.0 8.0 0.00 0.03 0.01 90 1007.2
20240303195557 39 190 0.0 11.0 0.00 0.03 0.01 90 1007.2
20240303195057 39 0 4.0 11.0 0.00 0.03 0.01 89 1007.3
20240303194611 39 277 2.0 9.0 0.00 0.03 0.01 90 1007.4
20240303194056 39 213 2.0 10.0 0.00 0.03 0.01 90 1007.3
20240303193558 39 269 2.0 10.0 0.00 0.03 0.01 90 1007.2
20240303193117 39 306 2.0 9.0 0.00 0.03 0.01 91 1007.3
20240303192557 39 0 1.0 8.0 0.00 0.03 0.01 91 1007.2
20240303192057 39 277 2.0 8.0 0.00 0.03 0.01 90 1007.2
20240303191605 39 192 1.0 9.0 0.00 0.03 0.01 90 1007.2
20240303191057 39 252 3.0 9.0 0.00 0.03 0.01 89 1007.0
20240303190558 39 0 0.0 9.0 0.00 0.03 0.01 89 1007.1
20240303190100 39 0 1.0 9.0 0.00 0.03 0.01 89 1007.0
20240303185554 39 221 3.0 9.0 0.00 0.03 0.01 89 1007.1
20240303185054 39 0 1.0 9.0 0.00 0.03 0.01 90 1007.0
20240303184603 39 207 1.0 7.0 0.00 0.03 0.01 90 1007.0
20240303184057 38 197 1.0 11.0 0.00 0.03 0.01 89 1007.0
20240303183557 38 0 1.0 11.0 0.00 0.03 0.01 89 1007.0
20240303183100 39 0 2.0 11.0 0.00 0.03 0.01 88 1006.9
20240303182557 39 0 2.0 11.0 0.00 0.03 0.01 88 1006.9
20240303182057 39 214 2.0 11.0 0.00 0.03 0.01 88 1006.9
20240303181603 38 0 2.0 11.0 0.00 0.03 0.01 88 1006.9
20240303181057 38 233 2.0 11.0 0.00 0.03 0.01 88 1006.9
20240303180559 38 217 4.0 11.0 0.00 0.03 0.01 89 1006.9
20240303180109 38 209 2.0 10.0 0.00 0.03 0.01 89 1006.8
20240303175555 38 214 3.0 11.0 0.00 0.07 0.01 88 1006.9
20240303175055 38 217 2.0 12.0 0.00 0.07 0.01 89 1006.9
20240303174555 38 228 5.0 12.0 0.00 0.07 0.01 89 1006.8
20240303174055 38 258 2.0 7.0 0.00 0.07 0.01 89 1006.8
20240303173554 38 0 1.0 10.0 0.00 0.07 0.01 90 1006.8
20240303173057 38 223 2.0 10.0 0.00 0.07 0.01 90 1006.7
20240303172559 37 194 2.0 10.0 0.00 0.07 0.01 90 1006.7
20240303172055 37 0 1.0 10.0 0.00 0.07 0.01 90 1006.6
20240303171644 37 211 1.0 9.0 0.00 0.07 0.01 90 1006.6
20240303171057 37 0 1.0 10.0 0.00 0.07 0.01 91 1006.4
20240303170558 37 294 1.0 10.0 0.00 0.07 0.01 91 1006.4
20240303170112 37 0 3.0 9.0 0.00 0.07 0.01 91 1006.4
20240303165557 37 0 2.0 10.0 0.00 0.07 0.01 91 1006.1
20240303165057 37 0 3.0 10.0 0.00 0.07 0.01 91 1006.2
20240303164604 37 213 1.0 8.0 0.00 0.07 0.01 91 1006.3
20240303164056 37 242 0.0 11.0 0.00 0.07 0.01 91 1006.2
20240303163556 37 0 1.0 14.0 0.00 0.07 0.01 91 1006.1
20240303163104 37 0 2.0 14.0 0.00 0.07 0.01 91 1006.1
20240303162557 37 195 2.0 10.0 0.00 0.07 0.01 91 1005.9
20240303162058 37 0 3.0 12.0 0.00 0.07 0.01 91 1005.9
20240303161600 37 0 4.0 12.0 0.00 0.07 0.01 91 1005.8
20240303161057 36 235 4.0 16.0 0.00 0.07 0.01 92 1005.8
20240303160554 36 217 5.0 16.0 0.00 0.07 0.01 92 1005.7
20240303160100 36 0 7.0 16.0 0.00 0.07 0.01 92 1005.7
20240303155558 36 219 3.0 13.0 0.00 0.08 0.01 92 1005.6
20240303155053 36 185 1.0 10.0 0.00 0.08 0.01 92 1005.4
20240303154558 36 196 3.0 10.0 0.00 0.08 0.01 92 1005.4
20240303154054 36 162 3.0 16.0 0.00 0.08 0.01 92 1005.3
20240303153554 36 210 2.0 16.0 0.00 0.08 0.01 93 1005.4
20240303153102 36 196 4.0 15.0 0.00 0.08 0.01 93 1005.4
20240303152558 36 0 0.0 11.0 0.00 0.08 0.01 93 1005.3
20240303152054 35 205 3.0 11.0 0.00 0.08 0.01 93 1005.3
20240303151559 35 186 1.0 6.0 0.00 0.08 0.01 93 1005.3
20240303151055 35 194 0.0 5.0 0.00 0.08 0.01 93 1005.2
20240303150555 35 219 1.0 5.0 0.00 0.08 0.01 93 1005.2
20240303150102 35 171 0.0 5.0 0.00 0.08 0.01 93 1005.2
20240303145557 35 0 0.0 5.0 0.00 0.09 0.01 93 1005.1
20240303145054 35 0 0.0 8.0 0.00 0.09 0.01 93 1005.1
20240303144559 35 203 2.0 8.0 0.00 0.09 0.01 93 1005.0
20240303144053 35 217 1.0 8.0 0.00 0.09 0.01 93 1004.9
20240303143555 35 192 3.0 9.0 0.00 0.09 0.01 93 1004.9
20240303143101 35 197 2.0 12.0 0.00 0.09 0.01 93 1005.0
20240303142556 36 209 2.0 12.0 0.00 0.09 0.01 93 1004.9
20240303142054 36 165 4.0 8.0 0.00 0.09 0.01 93 1004.9
20240303141558 36 0 2.0 8.0 0.00 0.09 0.01 93 1004.8
20240303141054 36 0 1.0 8.0 0.00 0.09 0.01 93 1004.8
20240303140554 36 222 3.0 10.0 0.00 0.09 0.01 94 1005.0
20240303140108 36 314 1.0 10.0 0.00 0.09 0.01 93 1005.0
20240303135555 36 265 0.0 9.0 0.00 0.19 0.01 94 1005.0
20240303135054 36 0 0.0 10.0 0.00 0.19 0.01 94 1004.8
20240303134559 36 0 1.0 10.0 0.00 0.19 0.01 94 1004.7
20240303134054 36 0 2.0 12.0 0.00 0.19 0.01 94 1004.6
20240303133554 36 176 4.0 12.0 0.00 0.19 0.01 94 1004.6
20240303133100 36 249 1.0 10.0 0.00 0.19 0.01 94 1004.6
20240303132559 36 202 2.0 10.0 0.00 0.19 0.01 94 1004.6
20240303132059 36 218 2.0 9.0 0.00 0.19 0.01 94 1004.5
20240303131558 36 0 2.0 11.0 0.00 0.19 0.01 94 1004.5
20240303131054 36 198 3.0 12.0 0.00 0.19 0.01 95 1004.6
20240303130558 36 219 5.0 12.0 0.00 0.19 0.01 94 1004.6
20240303130103 36 207 2.0 12.0 0.00 0.19 0.01 95 1004.5
20240303125601 36 196 3.0 12.0 0.00 0.20 0.01 95 1004.5
20240303125054 36 207 3.0 9.0 0.00 0.20 0.01 95 1004.6
20240303124603 36 0 2.0 9.0 0.00 0.20 0.01 95 1004.5
20240303124055 35 121 2.0 10.0 0.00 0.20 0.01 95 1004.5
20240303123554 35 217 1.0 10.0 0.00 0.20 0.01 95 1004.4
20240303123057 35 190 2.0 14.0 0.00 0.20 0.01 95 1004.5
20240303122558 35 0 4.0 14.0 0.00 0.20 0.01 95 1004.3
20240303122058 35 206 3.0 12.0 0.00 0.20 0.01 95 1004.1
20240303121602 35 223 4.0 12.0 0.00 0.20 0.01 95 1004.0
20240303121057 35 175 0.0 7.0 0.00 0.20 0.01 95 1004.0
20240303120559 35 0 1.0 9.0 0.00 0.20 0.01 95 1003.8
20240303120104 35 218 1.0 11.0 0.00 0.20 0.01 95 1003.7
20240303115558 35 219 3.0 11.0 0.00 0.20 0.01 95 1003.7
20240303115056 35 203 3.0 10.0 0.00 0.20 0.01 95 1003.7
20240303114601 35 207 2.0 10.0 0.00 0.20 0.01 95 1003.8
20240303114057 35 209 4.0 10.0 0.00 0.20 0.01 96 1003.9
20240303113601 35 0 2.0 8.0 0.00 0.20 0.01 96 1003.8
20240303113058 35 0 1.0 6.0 0.00 0.20 0.01 95 1003.9
20240303112557 35 181 2.0 6.0 0.00 0.20 0.01 95 1003.9
20240303112057 35 0 0.0 3.0 0.00 0.20 0.01 95 1003.9
20240303111556 35 0 0.0 3.0 0.00 0.20 0.01 95 1003.9
20240303111054 34 187 0.0 3.0 0.00 0.20 0.01 95 1004.1
20240303110554 34 0 0.0 3.0 0.00 0.20 0.01 95 1004.0
20240303110057 34 0 0.0 2.0 0.00 0.20 0.01 95 1004.0
20240303105557 35 0 0.0 4.0 0.00 0.22 0.01 95 1003.9
20240303105054 34 155 0.0 4.0 0.00 0.22 0.01 96 1003.8
20240303104558 34 0 1.0 8.0 0.00 0.22 0.01 96 1003.9
20240303104058 34 0 2.0 8.0 0.00 0.22 0.01 96 1003.8
20240303103558 34 190 0.0 6.0 0.00 0.22 0.01 96 1003.8
20240303103104 34 0 1.0 6.0 0.00 0.22 0.01 96 1003.7
20240303102556 34 0 0.0 1.0 0.00 0.22 0.01 95 1003.8
20240303102057 34 169 0.0 3.0 0.00 0.22 0.01 96 1003.7
20240303101605 34 194 0.0 3.0 0.00 0.22 0.01 96 1003.7
20240303101056 34 188 0.0 3.0 0.00 0.22 0.01 95 1003.7
20240303100556 34 0 0.0 3.0 0.00 0.22 0.01 96 1003.7
20240303100139 34 157 0.0 4.0 0.00 0.22 0.01 96 1003.6
20240303095556 34 0 0.0 4.0 0.00 0.22 0.01 96 1003.7
20240303095054 34 192 0.0 2.0 0.00 0.22 0.01 96 1003.6
20240303094605 33 0 0.0 4.0 0.00 0.22 0.01 96 1003.5
20240303094059 33 0 0.0 4.0 0.00 0.22 0.01 96 1003.2
20240303093555 33 0 0.0 4.0 0.00 0.22 0.01 96 1003.1
20240303093101 33 0 1.0 6.0 0.00 0.22 0.01 96 1003.1
20240303092555 33 175 1.0 6.0 0.00 0.22 0.01 96 1002.9
20240303092055 33 0 0.0 5.0 0.00 0.22 0.01 95 1002.9
20240303091605 33 0 0.0 5.0 0.00 0.22 0.01 95 1002.9
20240303091055 33 0 1.0 5.0 0.00 0.22 0.01 95 1002.8
20240303090554 33 185 1.0 5.0 0.01 0.22 0.01 95 1002.9
20240303090111 33 0 0.0 2.0 0.01 0.22 0.01 95 1002.8
20240303085555 33 0 0.0 2.0 0.01 0.22 0.01 95 1002.7
20240303085055 33 0 0.0 2.0 0.01 0.22 0.01 95 1002.8
20240303084556 33 0 0.0 3.0 0.01 0.22 0.01 95 1002.8
20240303084055 33 0 0.0 3.0 0.01 0.22 0.01 95 1002.7
20240303083556 33 0 0.0 3.0 0.01 0.22 0.01 95 1002.6
20240303083056 34 0 0.0 3.0 0.01 0.22 0.01 95 1002.6
20240303082553 34 0 0.0 3.0 0.01 0.22 0.01 95 1002.5
20240303082055 34 0 0.0 2.0 0.01 0.22 0.01 95 1002.6
20240303081557 34 0 0.0 4.0 0.01 0.22 0.01 95 1002.6
20240303081055 34 0 0.0 4.0 0.01 0.22 0.01 94 1002.7
20240303080556 34 0 0.0 4.0 0.00 0.21 0.00 94 1002.6
20240303080102 34 0 0.0 4.0 0.00 0.21 0.00 94 1002.5
20240303075554 34 0 0.0 0.0 0.00 0.21 0.21 94 1002.4
20240303075052 34 0 0.0 0.0 0.00 0.21 0.21 94 1002.3
20240303074607 34 0 0.0 0.0 0.00 0.21 0.21 94 1002.1